Tracking 19242 objects as of 16-Aug-2018
HD Live streaming from Space Station
objects crossing your sky now

NOAA 16 DEB

Track NOAA 16 DEB now!
10-day predictions


NORAD ID: 41407
Int'l Code: 2000-055KL
Perigee: 780.7 km
Apogee: 799.0 km
Inclination: 99.0 °
Period: 100.5 minutes
Semi major axis: 7160 km
RCS: Unknown
Launch date: September 21, 2000
Source: United States (US)
Launch site: AIR FORCE WESTERN TEST RANGE (AFWTR)

Note: This is SATELLITE DEBRIS
aabbcc
Your satellite tracking list
Your tracking list is empty




NASA's NSSDC Master Catalog

Two Line Element Set (TLE):
1 41407U 00055KL  18227.53670466  .00005795  00000-0  21440-2 0  9992
2 41407  99.0388 336.5174 0012777 154.3903 205.7914 14.32702197129661
Source of the keplerian elements: AFSPC